URSA MAIOR

Last updated on Sat Apr 13 2024 01:03:33 GMT+0100 (British Summer Time)

1 42776U 17036M 24103.58823885 .00094815 00000+0 93806-3 0 9995 2 42776 97.1111 136.1152 0006368 96.1789 264.0197 15.65533182379063
UTC large
Height (km)
Speed (km/s)
/
Latitude / Longitude
Inclination (degrees)
Orbital Period (minutes)
Azimuth
Elevation
Range (km)
Doppler Factor

Next 0 passes for location: London (51.5072 / 0.1276)

Sorry there are no passes over London.